Regional Weather Roundup
Issued by NWS Mobile, AL

Current Version | Previous Version | Text Only | Print | Product List | Glossary On
Versions: 1 2 3 4 5 6 7 8 9 10 11 12 13 14 15 16 17 18 19 20 21 22 23 24 25 26 27 28 29 30 31 32 33 34 35 36 37 38 39 40 41 42 43 44 45 46 47 48 49
948
ASUS44 KMOB 242012
RWRMOB
REGIONAL WEATHER ROUNDUP
NATIONAL WEATHER SERVICE MOBILE AL
300 PM CDT SUN JUL 24 2016

NOTE: "FAIR" INDICATES FEW OR NO CLOUDS BELOW 12,000 FEET WITH NO
      SIGNIFICANT WEATHER AND/OR OBSTRUCTIONS TO VISIBILITY.

  * THESE STATIONS ARE PART OF THE UNIVERSITY OF SOUTH ALABAMA
    MESONET AND ARE NOT UNDER NWS OR FAA QUALITY CONTROL.

ALZ061>064-242100-
COASTAL ALABAMA

CITY           SKY/WX    TMP DP  RH WIND       PRES   REMARKS
MOBILE REG APT MOSUNNY   89  75  63 SE16      29.98F HX  99
BROOKLEY FIELD CLOUDY    84  74  71 SE9       29.99F
USA CAMPUS*    NOT AVBL
DOG RIVER*     NOT AVBL


CITY           SKY/WX    TMP DP  RH WIND       PRES   REMARKS
MOUNT VERNON*  NOT AVBL
SARALAND*      NOT AVBL
BAY MINETTE*   NOT AVBL
LOXLEY*        NOT AVBL
ROBERTSDALE*   NOT AVBL
FAIRHOPE*      NOT AVBL
ELBERTA*       NOT AVBL
FOLEY*         NOT AVBL
GRAND BAY*     NOT AVBL
DAUPHIN ISLND* NOT AVBL
BON SCOUR NWR* NOT AVBL
GULF SHORES    CLOUDY    85  77  76 SE5       29.98F HX  95

$$

ALZ051>060-242100-
INTERIOR SOUTHWEST AND SOUTH CENTRAL ALABAMA

CITY           SKY/WX    TMP DP  RH WIND       PRES   REMARKS
GREENVILLE     PTSUNNY   94  70  45 E8        29.99F HX 100
EVERGREEN      PTSUNNY   90  73  57 E6        29.98F HX  98
CASTLEBERRY*   NOT AVBL
ATMORE*        NOT AVBL
DIXIE*         NOT AVBL
ANDALUSIA/OPP  MOSUNNY   97  71  42 SE8       29.99F HX 104
ANDALUSIA*     NOT AVBL
FLORALA APT    MOSUNNY   91  71  51 E9        30.01F HX  97
FLORALA*       NOT AVBL

$$

FLZ001>006-242100-
WESTERN FLORIDA PANHANDLE

CITY           SKY/WX    TMP DP  RH WIND       PRES   REMARKS
PENSACOLA      CLOUDY    87  76  69 SE10      29.99S HX  97
NAS PENSACOLA  PTSUNNY   89  73  59 SE12      29.97F HX  97
MILTON           N/A    N/A N/A N/A MISG      29.99F
WHTNG S FIELD  CLOUDY    83  80  91 NW3       29.99F THUNDER HX  95


CITY           SKY/WX    TMP DP  RH WIND       PRES   REMARKS
WALNUT HILL*   NOT AVBL
JAY*           NOT AVBL
DUKE FIELD     LGT RAIN  79  73  83 E3        29.98S
CRESTVIEW      LGT RAIN  80  76  87 E12       30.02R FOG
VALPARAISO     PTSUNNY   88  74  64 NE8       29.99R HX  96
DESTIN         PTSUNNY   88  78  72 SE13G22   29.99S HX 101

$$

MSZ076-079-242100-
INTERIOR SOUTHEAST MISSISSIPPI

CITY           SKY/WX    TMP DP  RH WIND       PRES   REMARKS
LEAKESVILLE*   NOT AVBL
AGRICOLA*      NOT AVBL

$$

MARINE OBSERVATIONS

STATION/POSITION TIME  TEMP    WIND        PRES    WAVE
                       AIR SEA DIR/SP/G            HT/PER
                 (UTC) (F)     (DEG/KT/KT) (MB)    (FT/S)
PASCAGOULA       1900   85      CALM  /  2 1015.0F
PETIT BOIS ISLND 1900   86     140/  4/  5 1016.0F
GRAND BAY        1800   85     160/  5     1017.0S
KATRINA CUT      1900   85     160/  7     1015.6F
CEDAR POINT      1900   87     150/  7     1015.2F
E DAUPHIN ISLAND 1900   86     150/ 10/ 11 1015.1F
MIDDLE BAY LIGHT 1900   82      80/ 20     1015.6F
USCG MOBILE BAY  1900   84 86  130/ 13/ 17 1016.2F
STATE DOCKS      1900   85 87              1015.8R
MEAHER PARK      1900   80      80/  7     1015.9S
WEEKS BAY        1800   84                   N/A
FORT MORGAN      1900   87     160/  8/ 10 1015.0F
12 S ORANGE BCH  1950   85 89   80/  6/ 10 1015.3F   1/ 3
PENSACOLA BAY    1900   90 89  160/  6/  8 1016.0F
64 S DAUPHIN ISL 1900   80 89  100/  4/  6 1015.0F
67 S FORT MORGAN 1930   82     360/  2     1015.2S

$$

SELECTED LOCATIONS ACROSS THE REGION

CITY           SKY/WX    TMP DP  RH WIND       PRES   REMARKS
NEW ORLEANS    CLOUDY    90  77  65 S10       29.94F HX 103
GULFPORT       CLOUDY    83  75  77 NE5       29.95F
PASCAGOULA AP  MOSUNNY   87  80  79 VRB7      29.96F HX 103
PASCAGOULA*    NOT AVBL
HATTIESBURG    SUNNY     93  73  52 SE7       29.95F HX 102
LAUREL         MOSUNNY   91  73  55 NE6       29.97F HX 100
MERIDIAN       SUNNY     96  71  44 CALM      29.95F HX 103
JACKSON        PTSUNNY   90  74  59 NW8       29.95F HX  99
MONTGOMERY     MOSUNNY   94  71  47 S7        29.99F HX 101
TROY           SUNNY     92  73  53 SE8       30.01F HX 100
KINSTON*       NOT AVBL
GENEVA*        NOT AVBL
ASHFORD*       NOT AVBL
DOTHAN         SUNNY     92  72  51 E7        30.03F HX  99
PANAMA CITY    TSTM      76  71  85 SE22G32   30.01R

$$





USA.gov is the U.S. government's official web portal to all federal, state and local government web resources and services.